Location: Unspecified
(0.0000°N, 0.0000°E)
Time: 18:42:00
(UTC+02:00)

Vanguard 1 Rocket - All Passes

Search period start: 20 July 2018 00:00
Search period end: 30 July 2018 00:00
Orbit: 652 x 4225 km, 34.3° (Epoch: 18 July)

Date Brightness Start Highest point End Pass type
(mag) Time Alt. Az. Time Alt. Az. Time Alt. Az.
20 Jul - 02:52:41 10° SSW 03:07:05 27° SSE 03:26:32 10° E visible
20 Jul - 05:18:42 10° SW 05:41:37 66° SE 06:06:20 10° ENE visible
20 Jul - 07:49:51 10° WSW 08:15:32 61° NW 08:35:35 10° NE daylight
20 Jul - 10:32:42 10° WNW 10:48:40 22° NNW 10:59:58 10° NNE daylight
20 Jul - 18:16:16 10° NW 18:20:49 57° NE 18:25:20 10° ESE daylight
20 Jul - 20:43:45 10° SW 20:46:26 14° SSW 20:49:38 10° S visible
21 Jul - 01:42:27 10° S 01:51:28 17° SSE 02:03:25 10° ESE visible
21 Jul - 04:06:35 10° SSW 04:25:57 47° SE 04:50:24 10° ENE visible
21 Jul - 06:34:50 10° SW 07:00:00 82° NW 07:23:12 10° NE visible
21 Jul - 09:11:30 10° W 09:33:38 35° NW 09:49:35 10° NNE daylight
21 Jul - 12:05:55 10° NNW 12:07:54 10° NNW 12:09:45 10° NNW daylight
21 Jul - 17:05:44 10° NNW 17:09:54 23° NNE 17:13:26 10° E daylight
21 Jul - 19:31:07 10° W 19:34:53 28° SSW 19:39:21 10° SSE daylight
22 Jul - 02:55:23 10° SSW 03:10:36 32° SE 03:31:48 10° E visible
22 Jul - 05:21:26 10° SW 05:44:16 77° SE 06:09:34 10° ENE visible
22 Jul - 07:53:29 10° WSW 08:18:17 51° NW 08:38:15 10° NE daylight
22 Jul - 10:38:58 10° WNW 10:52:36 18° NNW 11:02:40 10° NNE daylight
22 Jul - 15:55:48 10° N 15:58:12 12° NNE 16:00:17 10° NE daylight
22 Jul - 18:19:25 10° WNW 18:24:06 74° SW 18:28:39 10° SE daylight
23 Jul - 01:45:11 10° SSW 01:55:32 20° SSE 02:09:55 10° ESE visible
23 Jul - 04:09:15 10° SW 04:28:46 57° SE 04:54:12 10° ENE visible
23 Jul - 06:37:59 10° WSW 07:02:36 70° NW 07:25:58 10° NE visible
23 Jul - 09:16:31 10° W 09:37:02 29° NNW 09:52:16 10° NNE daylight
23 Jul - 17:08:10 10° NW 17:13:22 40° NNE 17:17:30 10° ESE daylight
23 Jul - 19:35:40 10° WSW 19:38:23 16° SSW 19:41:24 10° S daylight
24 Jul - 00:38:04 10° SSE 00:40:40 11° SSE 00:43:32 10° SE night (unlit)
24 Jul - 02:58:02 10° SSW 03:13:46 39° SE 03:36:31 10° E visible
24 Jul - 05:24:19 10° SW 05:46:50 89° SE 06:12:32 10° NE visible
24 Jul - 07:57:32 10° W 08:21:16 43° NW 08:40:53 10° NNE daylight
24 Jul - 10:45:33 10° NW 10:56:54 16° NNW 11:05:39 10° N daylight
24 Jul - 15:57:04 10° NNW 16:01:59 20° NNE 16:05:41 10° ENE daylight
24 Jul - 18:22:57 10° WNW 18:27:22 38° SW 18:31:35 10° SSE daylight
25 Jul - 01:47:47 10° SSW 01:59:13 24° SE 02:15:54 10° E visible
25 Jul - 04:11:59 10° SW 04:31:25 67° SE 04:57:36 10° ENE visible
25 Jul - 06:41:24 10° WSW 07:05:20 60° NW 07:28:37 10° NE visible
25 Jul - 09:22:07 10° WNW 09:40:49 25° NNW 09:55:03 10° NNE daylight
25 Jul - 14:45:52 10° NNW 14:49:43 13° NNE 14:52:49 10° NE daylight
25 Jul - 17:11:00 10° NW 17:16:44 75° NE 17:21:06 10° ESE daylight
26 Jul - 00:39:21 10° S 00:44:52 13° SSE 00:51:44 10° SE night (unlit)
26 Jul - 03:00:42 10° SSW 03:16:40 47° SE 03:40:41 10° ENE visible
26 Jul - 05:27:22 10° WSW 05:49:27 79° NW 06:15:18 10° NE visible
26 Jul - 08:02:02 10° W 08:24:33 36° NNW 08:43:32 10° NNE daylight
26 Jul - 10:51:56 10° NW 11:01:33 14° NNW 11:09:09 10° NNE daylight
26 Jul - 13:33:52 10° N 13:36:30 11° N 13:38:47 10° NNE daylight
26 Jul - 15:59:12 10° NW 16:05:39 33° NNE 16:10:00 10° E daylight
26 Jul - 18:27:00 10° W 18:30:38 21° SW 18:34:06 10° SSE daylight
27 Jul - 01:50:20 10° SSW 02:02:32 30° SE 02:21:14 10° E visible
27 Jul - 04:14:49 10° SW 04:34:01 79° SE 05:00:41 10° ENE visible
27 Jul - 06:45:09 10° WSW 07:08:16 50° NW 07:31:11 10° NE visible
27 Jul - 09:28:09 10° WNW 09:45:01 21° NNW 09:58:05 10° NNE daylight
27 Jul - 12:18:11 10° NNW 12:22:06 11° N 12:25:27 10° NNE daylight
27 Jul - 14:47:13 10° NNW 14:53:42 21° NNE 14:58:11 10° ENE daylight
27 Jul - 17:14:11 10° WNW 17:19:58 61° SW 17:24:19 10° SE daylight
28 Jul - 00:41:20 10° S 00:48:42 16° SE 00:58:46 10° ESE visible
28 Jul - 03:03:25 10° SW 03:19:22 56° SE 03:44:23 10° ENE visible
28 Jul - 05:30:39 10° WSW 05:52:11 68° NW 06:17:55 10° NE visible
28 Jul - 08:07:02 10° W 08:28:13 31° NNW 08:46:16 10° NNE daylight
28 Jul - 10:57:28 10° NW 11:06:24 14° N 11:13:29 10° NNE daylight
28 Jul - 13:34:27 10° NNW 13:40:48 16° NNE 13:45:27 10° NE daylight
28 Jul - 16:01:44 10° NW 16:09:08 56° NNE 16:13:50 10° ESE daylight
28 Jul - 18:32:06 10° WSW 18:33:55 12° SW 18:35:43 10° S daylight
29 Jul - 01:52:55 10° SSW 02:05:32 37° SE 02:25:55 10° E visible
29 Jul - 04:17:49 10° SW 04:36:38 89° NW 05:03:30 10° NE visible
29 Jul - 06:49:17 10° W 07:11:29 42° NNW 07:33:45 10° NE visible
29 Jul - 09:34:22 10° NW 09:49:36 19° NNW 10:01:31 10° NNE daylight
29 Jul - 12:19:51 10° NNW 12:26:45 14° N 12:32:03 10° NNE daylight
29 Jul - 14:49:11 10° NNW 14:57:31 31° NNE 15:02:40 10° E daylight
29 Jul - 17:17:47 10° WNW 17:23:07 34° SW 17:27:12 10° SSE daylight
